Yuma MCAS, AZ

12:36 AM MST on March 27, 2017 (GMT -0700)
Yuma Marine Corps Air Station

Weather History for KNYL - September, 2012

Change the Weather History Date:

Sunday, September 9, 2012

  Actual Average Record
Temperature  
Mean Temperature 91 °F 91 °F  
Max Temperature 104 °F 104 °F 113 °F (1963)
Min Temperature 77 °F 79 °F 59 °F (1912)
Degree Days  
Heating Degree Days 0 0  
Month to date heating degree days 0 0  
Since 1 July heating degree days 0 0  
Cooling Degree Days 26 26  
Month to date cooling degree days 261 245  
Year to date cooling degree days 3817 3698  
Growing Degree Days 40 (Base 50)    
Moisture  
Dew Point 64 °F    
Average Humidity 52    
Maximum Humidity 79    
Minimum Humidity 25    
Precipitation  
Precipitation 0.14 in 0.01 in 1.44 in (2014)
Month to date precipitation 0.14 0.15  
Year to date precipitation 2.17 2.24  
Sea Level Pressure  
Sea Level Pressure 29.81 in    
Wind  
Wind Speed 10 mph (ESE)    
Max Wind Speed 52 mph    
Max Gust Speed 64 mph    
Visibility 9 miles    
Events Rain , Thunderstorm    
T = Trace of Precipitation, MM = Missing Value Source: NWS Daily Summary

Daily Weather History Graph

Daily Weather History Graph

Search for Another Location

Airport or City:

Trip Planner

Search our weather history database for the weather conditions in past years. The results will help you decide how hot, cold, wet, or windy it might be!

Date:

Astronomy

Sep. 09, 2012 Rise Set
Actual Time 6:18 AM MST 6:51 PM MST
Civil Twilight 5:53 AM MST 7:16 PM MST
Nautical Twilight 5:24 AM MST 7:45 PM MST
Astronomical Twilight 4:54 AM MST 8:15 PM MST
Moon 12:05 AM MST (9/9) 2:26 PM MST (9/9)
Length of Visible Light 13h 22m
Length of Day
12h 33m
Last Quarter, 38% of the Moon is Illuminated
Sep 9
Last Quarter
Sep 15
New
Sep 22
First Quarter
Sep 29
Full
Oct 8
Last Quarter

Hourly Weather History & Observations

Time (MST) Temp. Heat Index Dew Point Humidity Pressure Visibility Wind Dir Wind Speed Gust Speed Precip Events Conditions
12:55 AM 90.0 °F 92.4 °F 66.0 °F 45% 29.79 in 10.0 mi North 4.6 mph - N/A   Mostly Cloudy
1:55 AM 90.0 °F 92.4 °F 66.0 °F 45% 29.80 in 10.0 mi ESE 8.1 mph - N/A   Mostly Cloudy
2:55 AM 89.1 °F 92.1 °F 66.9 °F 48% 29.79 in 10.0 mi Calm Calm - N/A   Clear
3:55 AM 88.0 °F 91.4 °F 68.0 °F 51% 29.79 in 10.0 mi ENE 6.9 mph - N/A   Mostly Cloudy
4:55 AM 89.1 °F 90.0 °F 63.0 °F 42% 29.80 in 10.0 mi East 12.7 mph - N/A   Mostly Cloudy
5:55 AM 88.0 °F 88.4 °F 62.1 °F 42% 29.81 in 10.0 mi East 9.2 mph - N/A   Mostly Cloudy
6:55 AM 89.1 °F 88.2 °F 59.0 °F 36% 29.83 in 10.0 mi East 10.4 mph - N/A   Mostly Cloudy
7:47 AM 87.8 °F 87.1 °F 59.0 °F 38% 29.85 in 10.0 mi East 13.8 mph - N/A   Mostly Cloudy
7:55 AM 87.1 °F 86.7 °F 60.1 °F 40% 29.84 in 10.0 mi East 15.0 mph - N/A   Mostly Cloudy
8:55 AM 89.1 °F 88.8 °F 60.1 °F 38% 29.86 in 10.0 mi East 10.4 mph - N/A   Mostly Cloudy
9:55 AM 91.9 °F 90.8 °F 57.9 °F 32% 29.86 in 10.0 mi East 8.1 mph - N/A   Mostly Cloudy
10:55 AM 93.9 °F 94.8 °F 62.1 °F 35% 29.85 in 10.0 mi North 6.9 mph - N/A   Mostly Cloudy
11:55 AM 98.1 °F 97.7 °F 59.0 °F 27% 29.83 in 10.0 mi Variable 5.8 mph - N/A   Mostly Cloudy
12:55 PM 98.1 °F 97.7 °F 59.0 °F 27% 29.81 in 10.0 mi Variable 4.6 mph - N/A   Scattered Clouds
1:55 PM 100.0 °F 100.2 °F 59.0 °F 26% 29.78 in 10.0 mi ENE 6.9 mph 17.3 mph N/A   Scattered Clouds
2:55 PM 100.9 °F 101.0 °F 59.0 °F 25% 29.75 in 10.0 mi Calm Calm - N/A   Scattered Clouds
3:55 PM 102.9 °F 103.6 °F 60.1 °F 24% 29.72 in 10.0 mi WSW 8.1 mph - N/A   Scattered Clouds
4:46 PM 102.2 °F 103.6 °F 60.8 °F 26% 29.73 in 10.0 mi South 11.5 mph - N/A Thunderstorm Thunderstorm
4:55 PM 102.0 °F 102.7 °F 60.1 °F 25% 29.73 in 10.0 mi SSW 11.5 mph - N/A Thunderstorm Thunderstorm
5:20 PM 98.6 °F 101.0 °F 64.4 °F 32% 29.77 in 4.0 mi ESE 29.9 mph 35.7 mph N/A Thunderstorm Haze
5:24 PM 93.2 °F 96.2 °F 66.2 °F 41% 29.79 in 1.5 mi SE 38.0 mph 57.5 mph N/A Thunderstorm Haze
5:32 PM 80.6 °F 83.9 °F 69.8 °F 70% 29.78 in 0.5 mi SE 49.5 mph 64.4 mph 0.00 in Rain , Thunderstorm Light Thunderstorms and Rain
5:40 PM 78.8 °F - 69.8 °F 74% 29.79 in 2.0 mi SE 36.8 mph 64.4 mph 0.00 in Rain , Thunderstorm Light Thunderstorms and Rain
5:55 PM 81.0 °F 83.8 °F 68.0 °F 65% 29.79 in 7.0 mi South 24.2 mph 46.0 mph 0.02 in Rain , Thunderstorm Light Thunderstorms and Rain
6:55 PM 77.0 °F - 70.0 °F 79% 29.86 in 8.0 mi SSE 23.0 mph - 0.04 in Rain , Thunderstorm Thunderstorms and Rain
7:55 PM 79.0 °F - 70.0 °F 74% 29.90 in 10.0 mi ESE 9.2 mph - N/A Rain , Thunderstorm Light Thunderstorms and Rain
8:55 PM 78.1 °F - 70.0 °F 76% 29.86 in 10.0 mi North 5.8 mph - 0.04 in Rain , Thunderstorm Light Thunderstorms and Rain
9:14 PM 78.8 °F - 71.6 °F 78% 29.85 in 10.0 mi NNW 8.1 mph - 0.00 in   Overcast
9:55 PM 78.1 °F - 69.1 °F 74% 29.84 in 10.0 mi NW 3.5 mph - 0.00 in   Overcast
10:55 PM 79.0 °F - 70.0 °F 74% 29.85 in 10.0 mi East 9.2 mph - N/A   Scattered Clouds
11:55 PM 79.0 °F - 69.1 °F 72% 29.87 in 10.0 mi Calm Calm - N/A   Partly Cloudy